Wetterdaten: Samstag, 08.05.2004
Datum Zeit Temp. A Sch. Temp. A Son. Feuchte A. Luftdruck Regen Wind Richtung Richtung Sonnenschein Helligkeit Taupunkt Windchill
08.05.2004 00:00 5,6 C 6,1 C 92 % 997 hPa 0,0 l/m 1,3 m/s (1 Bft) W-SW 245 0,00 min 0 lux 4,4 C 5,6 C
08.05.2004 00:05 5,6 C 6,0 C 92 % 997 hPa 0,0 l/m 2,0 m/s (1 Bft) W-SW22.5 240 0,00 min 0 lux 4,4 C 4,9 C
08.05.2004 00:10 5,6 C 6,0 C 92 % 997 hPa 0,0 l/m 0,2 m/s (0 Bft) SW 230 0,00 min 0 lux 4,4 C 5,6 C
08.05.2004 00:15 5,6 C 6,0 C 92 % 997 hPa 0,0 l/m 1,4 m/s (1 Bft) SW22.5 225 0,00 min 0 lux 4,4 C 5,6 C
08.05.2004 00:20 5,5 C 6,0 C 92 % 997 hPa 0,0 l/m 1,8 m/s (1 Bft) W-SW22.5 255 0,00 min 0 lux 4,3 C 5,4 C
08.05.2004 00:25 5,5 C 6,0 C 92 % 997 hPa 0,0 l/m 1,9 m/s (1 Bft) W22.5 260 0,00 min 0 lux 4,3 C 5,0 C
08.05.2004 00:30 5,4 C 6,0 C 92 % 997 hPa 0,0 l/m 2,0 m/s (1 Bft) W-SW45 240 0,00 min 0 lux 4,2 C 4,7 C
08.05.2004 00:35 5,4 C 5,9 C 92 % 997 hPa 0,0 l/m 2,8 m/s (1 Bft) W-SW45 250 0,00 min 0 lux 4,2 C 2,4 C
08.05.2004 00:40 5,3 C 6,0 C 91 % 997 hPa 0,0 l/m 3,0 m/s (1 Bft) W-SW22.5 250 0,00 min 0 lux 4,0 C 1,9 C
08.05.2004 00:45 5,4 C 5,9 C 91 % 997 hPa 0,4 l/m 2,4 m/s (1 Bft) W-SW22.5 245 0,00 min 0 lux 4,1 C 3,4 C
08.05.2004 00:50 5,4 C 5,9 C 91 % 997 hPa 0,0 l/m 1,0 m/s (0 Bft) W-SW22.5 250 0,00 min 0 lux 4,1 C 5,4 C
08.05.2004 00:55 5,3 C 5,9 C 91 % 997 hPa 0,0 l/m 1,2 m/s (1 Bft) W-SW 245 0,00 min 0 lux 4,0 C 5,3 C
08.05.2004 01:00 5,4 C 5,9 C 91 % 997 hPa 0,0 l/m 1,6 m/s (1 Bft) W22.5 270 0,00 min 0 lux 4,1 C 5,4 C
08.05.2004 01:05 5,3 C 5,8 C 91 % 997 hPa 0,0 l/m 1,1 m/s (0 Bft) W 275 0,00 min 0 lux 4,0 C 5,3 C
08.05.2004 01:10 5,4 C 5,9 C 91 % 997 hPa 0,4 l/m 0,0 m/s (0 Bft) W22.5 260 0,00 min 0 lux 4,1 C 5,4 C
08.05.2004 01:15 5,3 C 5,9 C 91 % 997 hPa 0,0 l/m 0,0 m/s (0 Bft) W22.5 260 0,00 min 0 lux 4,0 C 5,3 C
08.05.2004 01:20 5,5 C 5,9 C 91 % 997 hPa 0,0 l/m 0,0 m/s (0 Bft) W 265 0,00 min 0 lux 4,2 C 5,5 C
08.05.2004 01:25 5,4 C 5,8 C 91 % 997 hPa 0,0 l/m 0,0 m/s (0 Bft) W 270 0,00 min 0 lux 4,1 C 5,4 C
08.05.2004 01:30 5,4 C 5,8 C 91 % 997 hPa 0,0 l/m 0,1 m/s (0 Bft) W 265 0,00 min 0 lux 4,1 C 5,4 C
08.05.2004 01:35 5,1 C 5,8 C 91 % 997 hPa 0,4 l/m 0,1 m/s (0 Bft) W 265 0,00 min 0 lux 3,8 C 5,1 C
08.05.2004 01:40 5,4 C 5,8 C 91 % 997 hPa 0,0 l/m 0,0 m/s (0 Bft) W 265 0,00 min 0 lux 4,1 C 5,4 C
08.05.2004 01:45 5,4 C 5,8 C 91 % 997 hPa 0,0 l/m 0,0 m/s (0 Bft) W 265 0,00 min 0 lux 4,1 C 5,4 C
08.05.2004 01:50 5,4 C 5,8 C 91 % 997 hPa 0,0 l/m 0,0 m/s (0 Bft) W 265 0,00 min 0 lux 4,1 C 5,4 C
08.05.2004 01:55 5,3 C 5,8 C 91 % 997 hPa 0,0 l/m 0,0 m/s (0 Bft) W 265 0,00 min 0 lux 4,0 C 5,3 C
08.05.2004 02:00 5,4 C 5,8 C 92 % 997 hPa 0,4 l/m 0,0 m/s (0 Bft) W 265 0,00 min 0 lux 4,2 C 5,4 C
08.05.2004 02:05 5,4 C 5,8 C 92 % 997 hPa 0,0 l/m 0,0 m/s (0 Bft) W 265 0,00 min 0 lux 4,2 C 5,4 C
08.05.2004 02:10 5,5 C 5,8 C 92 % 997 hPa 0,0 l/m 0,0 m/s (0 Bft) W 265 0,00 min 0 lux 4,3 C 5,5 C
08.05.2004 02:15 5,4 C 5,8 C 92 % 997 hPa 0,0 l/m 0,0 m/s (0 Bft) W 265 0,00 min 0 lux 4,2 C 5,4 C
08.05.2004 02:20 5,4 C 5,9 C 92 % 997 hPa 0,0 l/m 0,0 m/s (0 Bft) W 265 0,00 min 0 lux 4,2 C 5,4 C
08.05.2004 02:25 5,2 C 5,9 C 92 % 997 hPa 0,4 l/m 0,0 m/s (0 Bft) W 265 0,00 min 0 lux 4,0 C 5,2 C
08.05.2004 02:30 5,3 C 5,9 C 92 % 997 hPa 0,0 l/m 0,0 m/s (0 Bft) W 265 0,00 min 0 lux 4,1 C 5,3 C
08.05.2004 02:35 5,5 C 5,9 C 92 % 997 hPa 0,0 l/m 0,0 m/s (0 Bft) W 265 0,00 min 0 lux 4,3 C 5,5 C
08.05.2004 02:40 5,2 C 5,9 C 92 % 997 hPa 0,0 l/m 0,0 m/s (0 Bft) W 265 0,00 min 0 lux 4,0 C 5,2 C
08.05.2004 02:45 5,4 C 5,9 C 92 % 997 hPa 0,0 l/m 0,0 m/s (0 Bft) W 265 0,00 min 0 lux 4,2 C 5,4 C
08.05.2004 02:50 5,5 C 5,9 C 93 % 997 hPa 0,0 l/m 0,1 m/s (0 Bft) W 265 0,00 min 0 lux 4,5 C 5,5 C
08.05.2004 02:55 5,5 C 5,9 C 93 % 996 hPa 0,0 l/m 3,3 m/s (1 Bft) SW67.5 220 0,00 min 0 lux 4,5 C 1,5 C
08.05.2004 03:00 5,5 C 5,9 C 93 % 996 hPa 0,4 l/m 3,1 m/s (1 Bft) SW45 230 0,00 min 0 lux 4,5 C 1,8 C
08.05.2004 03:05 5,3 C 5,9 C 92 % 996 hPa 0,0 l/m 3,1 m/s (1 Bft) SW45 230 0,00 min 0 lux 4,1 C 1,5 C
08.05.2004 03:10 5,4 C 5,8 C 92 % 996 hPa 0,0 l/m 2,4 m/s (1 Bft) SW22.5 220 0,00 min 0 lux 4,2 C 3,5 C
08.05.2004 03:15 5,4 C 5,7 C 92 % 996 hPa 0,0 l/m 4,7 m/s (1 Bft) SW22.5 220 0,00 min 0 lux 4,2 C -1,4 C
08.05.2004 03:20 5,4 C 5,7 C 91 % 996 hPa 0,0 l/m 3,3 m/s (1 Bft) SW45 235 0,00 min 0 lux 4,1 C 1,2 C
08.05.2004 03:25 5,2 C 5,7 C 91 % 996 hPa 0,0 l/m 4,0 m/s (1 Bft) SW45 220 0,00 min 0 lux 3,9 C -0,4 C
08.05.2004 03:30 5,4 C 5,6 C 91 % 996 hPa 0,0 l/m 1,8 m/s (1 Bft) S-SW45 210 0,00 min 0 lux 4,1 C 5,2 C
08.05.2004 03:35 5,2 C 5,6 C 91 % 996 hPa 0,0 l/m 1,8 m/s (1 Bft) S-SW67.5 195 0,00 min 0 lux 3,9 C 5,2 C
08.05.2004 03:40 5,2 C 5,6 C 91 % 996 hPa 0,0 l/m 1,9 m/s (1 Bft) S45 190 0,00 min 0 lux 3,9 C 4,9 C
08.05.2004 03:45 5,2 C 5,6 C 91 % 996 hPa 0,0 l/m 2,3 m/s (1 Bft) S45 180 0,00 min 0 lux 3,9 C 3,6 C
08.05.2004 03:50 5,4 C 5,6 C 91 % 996 hPa 0,0 l/m 0,3 m/s (0 Bft) S-SW22.5 205 0,00 min 0 lux 4,1 C 5,4 C
08.05.2004 03:55 5,2 C 5,6 C 91 % 996 hPa 0,0 l/m 0,0 m/s (0 Bft) S-SO22.5 155 0,00 min 0 lux 3,9 C 5,2 C
08.05.2004 04:00 5,5 C 5,6 C 91 % 996 hPa 0,0 l/m 1,5 m/s (1 Bft) S67.5 175 0,00 min 0 lux 4,2 C 5,5 C
08.05.2004 04:05 5,5 C 5,6 C 91 % 996 hPa 0,4 l/m 0,3 m/s (0 Bft) S45 185 0,00 min 0 lux 4,2 C 5,5 C
08.05.2004 04:10 5,5 C 5,6 C 92 % 996 hPa 0,0 l/m 1,4 m/s (1 Bft) S-SO45 150 0,00 min 0 lux 4,3 C 5,5 C
08.05.2004 04:15 5,6 C 5,6 C 92 % 996 hPa 0,0 l/m 2,1 m/s (1 Bft) S45 180 0,00 min 0 lux 4,4 C 4,7 C
08.05.2004 04:20 5,2 C 5,6 C 91 % 996 hPa 0,0 l/m 1,8 m/s (1 Bft) O-SO22.5 105 0,00 min 0 lux 3,9 C 5,2 C
08.05.2004 04:25 5,3 C 5,7 C 92 % 996 hPa 0,0 l/m 2,4 m/s (1 Bft) SO45 145 0,00 min 0 lux 4,1 C 3,4 C
08.05.2004 04:30 5,3 C 5,7 C 92 % 996 hPa 0,0 l/m 2,7 m/s (1 Bft) SO45 140 0,00 min 0 lux 4,1 C 2,5 C
08.05.2004 04:35 5,4 C 5,6 C 92 % 996 hPa 0,0 l/m 3,3 m/s (1 Bft) S-SO67.5 150 0,00 min 0 lux 4,2 C 1,3 C
08.05.2004 04:40 5,3 C 5,7 C 92 % 996 hPa 0,0 l/m 5,1 m/s (1 Bft) SW45 230 0,00 min 0 lux 4,1 C -2,0 C
08.05.2004 04:45 5,3 C 5,6 C 92 % 996 hPa 0,0 l/m 3,5 m/s (1 Bft) S-SO67.5 165 0,00 min 0 lux 4,1 C 0,7 C
08.05.2004 04:50 5,3 C 5,7 C 92 % 996 hPa 0,0 l/m 3,5 m/s (1 Bft) S-SW67.5 205 0,00 min 0 lux 4,1 C 0,7 C
08.05.2004 04:55 5,3 C 5,6 C 92 % 996 hPa 0,0 l/m 5,1 m/s (1 Bft) S67.5 185 0,00 min 0 lux 4,1 C -2,2 C
08.05.2004 05:00 5,4 C 5,6 C 91 % 996 hPa 0,0 l/m 2,7 m/s (1 Bft) SW45 220 0,00 min 0 lux 4,1 C 2,7 C
08.05.2004 05:05 5,2 C 5,6 C 91 % 996 hPa 0,0 l/m 3,4 m/s (1 Bft) S67.5 185 0,00 min 0 lux 3,9 C 0,7 C
08.05.2004 05:10 5,2 C 5,6 C 91 % 996 hPa 0,0 l/m 2,9 m/s (1 Bft) S67.5 180 0,00 min 0 lux 3,9 C 1,9 C
08.05.2004 05:15 5,1 C 5,5 C 91 % 996 hPa 0,0 l/m 3,1 m/s (1 Bft) S-SO45 165 0,00 min 0 lux 3,8 C 1,4 C
08.05.2004 05:20 5,1 C 5,5 C 91 % 996 hPa 0,0 l/m 4,0 m/s (1 Bft) S-SW67.5 200 0,00 min 0 lux 3,8 C -0,5 C
08.05.2004 05:25 5,1 C 5,5 C 91 % 996 hPa 0,0 l/m 3,1 m/s (1 Bft) SW45 220 0,00 min 0 lux 3,8 C 1,3 C
08.05.2004 05:30 5,1 C 5,5 C 91 % 996 hPa 0,0 l/m 1,5 m/s (1 Bft) S-SW67.5 200 0,00 min 0 lux 3,8 C 5,1 C
08.05.2004 05:35 5,3 C 5,5 C 91 % 996 hPa 0,4 l/m 0,0 m/s (0 Bft) SO22.5 145 0,00 min 0 lux 4,0 C 5,3 C
08.05.2004 05:40 5,2 C 5,5 C 92 % 996 hPa 0,0 l/m 0,3 m/s (0 Bft) S-SW45 205 0,00 min 0 lux 4,0 C 5,2 C
08.05.2004 05:45 5,2 C 5,5 C 92 % 996 hPa 0,0 l/m 0,1 m/s (0 Bft) S-SW45 205 0,00 min 144 lux 4,0 C 5,2 C
08.05.2004 05:50 5,2 C 5,5 C 92 % 996 hPa 0,0 l/m 0,3 m/s (0 Bft) S45 170 0,00 min 173 lux 4,0 C 5,2 C
08.05.2004 05:55 5,2 C 5,5 C 92 % 996 hPa 0,0 l/m 3,2 m/s (1 Bft) S-SO67.5 155 0,00 min 173 lux 4,0 C 1,3 C
08.05.2004 06:00 5,3 C 5,5 C 92 % 996 hPa 0,0 l/m 2,2 m/s (1 Bft) S67.5 175 0,00 min 209 lux 4,1 C 4,0 C
08.05.2004 06:05 5,3 C 5,5 C 92 % 996 hPa 0,4 l/m 0,2 m/s (0 Bft) SW45 215 0,00 min 394 lux 4,1 C 5,3 C
08.05.2004 06:10 5,3 C 5,5 C 91 % 996 hPa 0,0 l/m 0,6 m/s (0 Bft) SW45 215 0,00 min 404 lux 4,0 C 5,3 C
08.05.2004 06:15 5,3 C 5,5 C 91 % 996 hPa 0,0 l/m 2,4 m/s (1 Bft) S-SO45 165 0,00 min 360 lux 4,0 C 3,4 C
08.05.2004 06:20 5,4 C 5,5 C 91 % 996 hPa 0,0 l/m 4,0 m/s (1 Bft) SO45 145 0,00 min 405 lux 4,1 C -0,2 C
08.05.2004 06:25 5,4 C 5,5 C 91 % 996 hPa 0,0 l/m 2,6 m/s (1 Bft) S-SO45 150 0,00 min 488 lux 4,1 C 2,9 C
08.05.2004 06:30 5,6 C 5,5 C 91 % 996 hPa 0,0 l/m 3,9 m/s (1 Bft) SO45 135 0,00 min 642 lux 4,2 C 0,4 C
08.05.2004 06:35 5,4 C 5,6 C 91 % 996 hPa 0,0 l/m 4,0 m/s (1 Bft) S-SO45 155 0,00 min 793 lux 4,1 C -0,2 C
08.05.2004 06:40 5,4 C 5,6 C 91 % 996 hPa 0,0 l/m 3,3 m/s (1 Bft) S-SO45 160 0,00 min 972 lux 4,1 C 1,3 C
08.05.2004 06:45 5,5 C 5,6 C 91 % 996 hPa 0,4 l/m 1,8 m/s (1 Bft) S-SW67.5 200 0,00 min 739 lux 4,2 C 5,4 C
08.05.2004 06:50 5,5 C 5,6 C 91 % 996 hPa 0,0 l/m 1,8 m/s (1 Bft) S-SO45 150 0,00 min 1,14 klux 4,2 C 5,5 C
08.05.2004 06:55 5,5 C 5,6 C 91 % 996 hPa 0,0 l/m 4,0 m/s (1 Bft) S67.5 180 0,00 min 1,18 klux 4,2 C 0,0 C
08.05.2004 07:00 5,4 C 5,6 C 90 % 996 hPa 0,0 l/m 4,2 m/s (1 Bft) W-SW45 240 0,00 min 1,19 klux 3,9 C -0,5 C
08.05.2004 07:05 5,6 C 5,5 C 90 % 996 hPa 0,0 l/m 0,3 m/s (0 Bft) S-SW45 210 0,00 min 1,77 klux 4,1 C 5,6 C
08.05.2004 07:10 5,6 C 5,5 C 90 % 996 hPa 0,0 l/m 0,5 m/s (0 Bft) S67.5 180 0,00 min 1,97 klux 4,1 C 5,6 C
08.05.2004 07:15 5,5 C 5,6 C 90 % 996 hPa 0,0 l/m 1,4 m/s (1 Bft) SO67.5 145 0,00 min 1,49 klux 4,0 C 5,5 C
08.05.2004 07:20 5,5 C 5,5 C 90 % 996 hPa 0,0 l/m 1,9 m/s (1 Bft) SO22.5 130 0,00 min 2,05 klux 4,0 C 5,3 C
08.05.2004 07:25 5,5 C 5,6 C 91 % 996 hPa 0,4 l/m 3,2 m/s (1 Bft) SO67.5 145 0,00 min 1,80 klux 4,2 C 1,6 C
08.05.2004 07:30 5,6 C 5,6 C 91 % 996 hPa 0,0 l/m 2,5 m/s (1 Bft) SO45 135 0,00 min 3,45 klux 4,2 C 3,5 C
08.05.2004 07:35 5,6 C 5,7 C 91 % 996 hPa 0,0 l/m 2,6 m/s (1 Bft) SO45 140 0,00 min 3,97 klux 4,2 C 3,3 C
08.05.2004 07:40 5,7 C 5,7 C 91 % 996 hPa 0,0 l/m 4,0 m/s (1 Bft) SO67.5 140 0,00 min 4,71 klux 4,3 C 0,3 C
08.05.2004 07:45 5,7 C 5,7 C 91 % 996 hPa 0,0 l/m 6,2 m/s (2 Bft) SO22.5 125 0,00 min 4,95 klux 4,3 C -3,1 C
08.05.2004 07:50 5,7 C 5,7 C 91 % 996 hPa 0,0 l/m 4,7 m/s (1 Bft) SO22.5 140 0,00 min 4,23 klux 4,3 C -0,9 C
08.05.2004 07:55 5,9 C 5,8 C 91 % 996 hPa 0,0 l/m 1,4 m/s (1 Bft) S-SO45 165 0,00 min 4,74 klux 4,5 C 5,9 C
08.05.2004 08:00 5,9 C 5,8 C 90 % 996 hPa 0,0 l/m 1,4 m/s (1 Bft) SO22.5 135 0,00 min 6,74 klux 4,4 C 5,9 C
08.05.2004 08:05 5,9 C 5,9 C 90 % 996 hPa 0,0 l/m 1,6 m/s (1 Bft) SO67.5 135 0,00 min 7,64 klux 4,4 C 5,9 C
08.05.2004 08:10 5,9 C 6,0 C 90 % 996 hPa 0,0 l/m 2,6 m/s (1 Bft) S-SW67.5 195 0,00 min 7,90 klux 4,4 C 3,6 C
08.05.2004 08:15 5,9 C 6,0 C 90 % 996 hPa 0,0 l/m 6,7 m/s (2 Bft) S-SO45 150 0,00 min 9,2 klux 4,4 C -3,5 C
08.05.2004 08:20 5,9 C 6,0 C 89 % 996 hPa 0,0 l/m 4,9 m/s (1 Bft) S-SO67.5 165 0,00 min 8,40 klux 4,2 C -1,0 C
08.05.2004 08:25 5,9 C 6,1 C 89 % 996 hPa 0,0 l/m 3,2 m/s (1 Bft) S67.5 175 0,00 min 10,3 klux 4,2 C 2,2 C
08.05.2004 08:30 6,1 C 6,1 C 88 % 996 hPa 0,0 l/m 1,6 m/s (1 Bft) SO45 125 0,00 min 10,2 klux 4,3 C 6,1 C
08.05.2004 08:35 6,0 C 6,2 C 87 % 996 hPa 0,0 l/m 2,4 m/s (1 Bft) SO22.5 125 0,00 min 9,7 klux 4,0 C 4,1 C
08.05.2004 08:40 6,1 C 6,2 C 88 % 996 hPa 0,0 l/m 4,8 m/s (1 Bft) SO22.5 145 0,00 min 11,5 klux 4,3 C -0,6 C
08.05.2004 08:45 6,0 C 6,2 C 87 % 996 hPa 0,0 l/m 7,1 m/s (2 Bft) SO45 135 0,00 min 10,4 klux 4,0 C -3,8 C
08.05.2004 08:50 6,1 C 6,2 C 87 % 996 hPa 0,0 l/m 3,3 m/s (1 Bft) S-SO67.5 150 0,00 min 8,65 klux 4,1 C 2,0 C
08.05.2004 08:55 5,9 C 6,2 C 88 % 996 hPa 0,0 l/m 8,3 m/s (2 Bft) SO67.5 140 0,00 min 12,5 klux 4,1 C -5,1 C
08.05.2004 09:00 6,1 C 6,2 C 87 % 996 hPa 0,0 l/m 6,1 m/s (2 Bft) SO45 135 0,00 min 16,5 klux 4,1 C -2,5 C
08.05.2004 09:05 6,3 C 6,2 C 86 % 996 hPa 0,0 l/m 6,5 m/s (2 Bft) S-SO67.5 150 0,00 min 20,6 klux 4,1 C -2,7 C
08.05.2004 09:10 6,4 C 6,3 C 86 % 996 hPa 0,0 l/m 3,7 m/s (1 Bft) SO67.5 140 0,00 min 14,7 klux 4,2 C 1,7 C
08.05.2004 09:15 6,1 C 6,3 C 85 % 996 hPa 0,0 l/m 3,7 m/s (1 Bft) SO22.5 135 0,00 min 18,5 klux 3,8 C 1,3 C
08.05.2004 09:20 6,3 C 6,3 C 85 % 996 hPa 0,0 l/m 6,8 m/s (2 Bft) S-SO67.5 150 0,00 min 11,9 klux 4,0 C -3,0 C
08.05.2004 09:25 6,3 C 6,3 C 86 % 996 hPa 0,4 l/m 0,3 m/s (0 Bft) SO 145 0,00 min 13,8 klux 4,1 C 6,3 C
08.05.2004 09:30 6,3 C 6,4 C 86 % 996 hPa 0,0 l/m 3,5 m/s (1 Bft) SO45 130 0,00 min 16,2 klux 4,1 C 1,9 C
08.05.2004 09:35 6,4 C 6,4 C 86 % 996 hPa 0,0 l/m 4,3 m/s (1 Bft) SO67.5 140 0,00 min 16,5 klux 4,2 C 0,5 C
08.05.2004 09:40 6,4 C 6,5 C 86 % 996 hPa 0,0 l/m 3,5 m/s (1 Bft) SO22.5 140 0,00 min 26,9 klux 4,2 C 2,0 C
08.05.2004 09:45 7,0 C 6,7 C 86 % 996 hPa 0,0 l/m 2,7 m/s (1 Bft) S-SO67.5 165 0,00 min 26,5 klux 4,8 C 4,4 C
08.05.2004 09:50 6,5 C 6,8 C 86 % 996 hPa 0,0 l/m 4,1 m/s (1 Bft) O-SO45 105 0,00 min 15,5 klux 4,3 C 1,0 C
08.05.2004 09:55 6,5 C 6,9 C 86 % 996 hPa 0,0 l/m 4,0 m/s (1 Bft) SO45 125 0,00 min 12,0 klux 4,3 C 1,2 C
08.05.2004 10:00 6,5 C 6,9 C 87 % 996 hPa 0,0 l/m 2,7 m/s (1 Bft) SO67.5 140 0,00 min 13,1 klux 4,5 C 3,9 C
08.05.2004 10:05 6,4 C 6,7 C 87 % 996 hPa 0,0 l/m 4,1 m/s (1 Bft) S-SO67.5 150 0,00 min 11,5 klux 4,4 C 0,9 C
08.05.2004 10:10 6,4 C 6,7 C 87 % 996 hPa 0,0 l/m 1,9 m/s (1 Bft) S-SO67.5 150 0,00 min 14,0 klux 4,4 C 6,0 C
08.05.2004 10:15 6,7 C 6,7 C 86 % 997 hPa 0,0 l/m 8,4 m/s (2 Bft) SO45 130 0,00 min 20,5 klux 4,5 C -4,1 C
08.05.2004 10:20 6,7 C 6,8 C 86 % 997 hPa 0,0 l/m 3,5 m/s (1 Bft) S-SO67.5 165 0,00 min 19,9 klux 4,5 C 2,4 C
08.05.2004 10:25 6,9 C 6,8 C 85 % 997 hPa 0,0 l/m 4,9 m/s (1 Bft) SO67.5 145 0,00 min 19,1 klux 4,6 C 0,3 C
08.05.2004 10:30 6,9 C 6,9 C 85 % 997 hPa 0,0 l/m 4,6 m/s (1 Bft) SO45 130 0,00 min 22,8 klux 4,6 C 0,7 C
08.05.2004 10:35 7,1 C 7,1 C 85 % 997 hPa 0,0 l/m 2,0 m/s (1 Bft) S-SO67.5 155 0,00 min 26,4 klux 4,8 C 6,4 C
08.05.2004 10:40 7,4 C 7,2 C 84 % 997 hPa 0,4 l/m 6,4 m/s (2 Bft) S-SO67.5 155 0,00 min 29,2 klux 4,9 C -1,1 C
08.05.2004 10:45 7,4 C 7,2 C 84 % 997 hPa 0,0 l/m 4,9 m/s (1 Bft) SO67.5 145 0,00 min 21,2 klux 4,9 C 0,8 C
08.05.2004 10:50 7,3 C 7,2 C 83 % 997 hPa 0,0 l/m 4,9 m/s (1 Bft) SO67.5 145 0,00 min 16,3 klux 4,6 C 0,6 C
08.05.2004 10:55 7,1 C 7,1 C 84 % 997 hPa 0,0 l/m 2,5 m/s (1 Bft) SO67.5 135 0,00 min 12,8 klux 4,6 C 5,1 C
08.05.2004 11:00 7,1 C 7,2 C 85 % 997 hPa 0,0 l/m 4,4 m/s (1 Bft) SO45 135 0,00 min 23,6 klux 4,8 C 1,3 C
08.05.2004 11:05 7,3 C 7,2 C 85 % 997 hPa 0,0 l/m 4,1 m/s (1 Bft) SO22.5 130 0,00 min 29,7 klux 4,9 C 2,0 C
08.05.2004 11:10 7,6 C 7,4 C 85 % 997 hPa 0,0 l/m 3,2 m/s (1 Bft) SO67.5 140 0,00 min 30,3 klux 5,2 C 4,1 C
08.05.2004 11:15 7,4 C 7,4 C 84 % 997 hPa 0,0 l/m 5,3 m/s (1 Bft) SO45 125 0,00 min 22,5 klux 4,9 C 0,3 C
08.05.2004 11:20 7,4 C 7,4 C 84 % 997 hPa 0,0 l/m 5,4 m/s (1 Bft) SO67.5 135 0,00 min 21,8 klux 4,9 C 0,1 C
08.05.2004 11:25 7,7 C 7,5 C 85 % 997 hPa 0,0 l/m 3,6 m/s (1 Bft) SO22.5 130 0,00 min 27,9 klux 5,3 C 3,3 C
08.05.2004 11:30 7,9 C 7,5 C 84 % 997 hPa 0,0 l/m 2,8 m/s (1 Bft) SO45 145 0,00 min 31,4 klux 5,4 C 5,3 C
08.05.2004 11:35 7,9 C 7,6 C 84 % 997 hPa 0,0 l/m 4,0 m/s (1 Bft) SO45 135 0,00 min 29,4 klux 5,4 C 2,8 C
08.05.2004 11:40 7,7 C 7,6 C 82 % 997 hPa 0,0 l/m 3,6 m/s (1 Bft) SO45 140 0,00 min 25,0 klux 4,8 C 3,4 C
08.05.2004 11:45 8,0 C 7,6 C 82 % 997 hPa 0,0 l/m 3,7 m/s (1 Bft) S-SO67.5 165 0,00 min 28,2 klux 5,1 C 3,5 C
08.05.2004 11:50 8,6 C 7,7 C 83 % 997 hPa 0,0 l/m 3,8 m/s (1 Bft) SO67.5 140 0,00 min 39,8 klux 5,9 C 4,0 C
08.05.2004 11:55 8,2 C 7,7 C 81 % 997 hPa 0,0 l/m 5,8 m/s (2 Bft) SO22.5 135 0,00 min 27,0 klux 5,1 C 0,7 C
08.05.2004 12:00 8,5 C 7,7 C 81 % 997 hPa 0,0 l/m 5,3 m/s (1 Bft) SO45 140 0,00 min 27,9 klux 5,4 C 1,7 C
08.05.2004 12:05 8,0 C 7,8 C 81 % 997 hPa 0,0 l/m 6,7 m/s (2 Bft) SO45 140 0,00 min 34,6 klux 4,9 C -0,6 C
08.05.2004 12:10 7,9 C 7,7 C 81 % 997 hPa 0,0 l/m 8,3 m/s (2 Bft) S-SO67.5 150 0,00 min 29,7 klux 4,8 C -2,2 C
08.05.2004 12:15 8,0 C 7,8 C 79 % 997 hPa 0,0 l/m 6,1 m/s (2 Bft) S-SO67.5 160 0,00 min 20,2 klux 4,6 C 0,1 C
08.05.2004 12:20 8,5 C 7,8 C 78 % 997 hPa 0,0 l/m 4,8 m/s (1 Bft) S-SW67.5 200 0,00 min 33,1 klux 4,9 C 2,4 C
08.05.2004 12:25 8,5 C 7,8 C 78 % 997 hPa 0,0 l/m 2,4 m/s (1 Bft) SW67.5 215 0,00 min 31,5 klux 4,9 C 6,8 C
08.05.2004 12:30 7,9 C 8,1 C 79 % 997 hPa 0,0 l/m 4,2 m/s (1 Bft) SW67.5 230 0,00 min 15,7 klux 4,5 C 2,6 C
08.05.2004 12:35 7,8 C 8,0 C 81 % 997 hPa 0,0 l/m 2,8 m/s (1 Bft) SW45 235 0,00 min 18,0 klux 4,7 C 5,1 C
08.05.2004 12:40 8,1 C 8,1 C 80 % 997 hPa 0,0 l/m 1,4 m/s (1 Bft) SO67.5 125 0,00 min 23,6 klux 4,9 C 8,1 C
08.05.2004 12:45 7,9 C 8,2 C 81 % 997 hPa 0,0 l/m 7,6 m/s (2 Bft) SO67.5 125 0,00 min 25,8 klux 4,8 C -1,7 C
08.05.2004 12:50 8,0 C 8,2 C 80 % 997 hPa 0,0 l/m 4,9 m/s (1 Bft) SO67.5 140 0,00 min 21,9 klux 4,8 C 1,6 C
08.05.2004 12:55 8,2 C 8,2 C 79 % 997 hPa 0,0 l/m 5,4 m/s (1 Bft) S-SO45 150 0,00 min 25,3 klux 4,8 C 1,2 C
08.05.2004 13:00 8,2 C 8,2 C 80 % 997 hPa 0,0 l/m 2,7 m/s (1 Bft) S-SO67.5 165 0,00 min 13,2 klux 5,0 C 5,9 C
08.05.2004 13:05 8,2 C 8,3 C 80 % 997 hPa 0,0 l/m 4,1 m/s (1 Bft) SO45 140 0,00 min 29,9 klux 5,0 C 3,0 C
08.05.2004 13:10 8,5 C 8,3 C 80 % 997 hPa 0,0 l/m 2,8 m/s (1 Bft) S-SO67.5 165 0,00 min 26,9 klux 5,3 C 5,9 C
08.05.2004 13:15 8,2 C 8,4 C 78 % 997 hPa 0,0 l/m 5,8 m/s (2 Bft) SO45 125 0,00 min 19,4 klux 4,6 C 0,6 C
08.05.2004 13:20 8,0 C 8,5 C 78 % 998 hPa 0,0 l/m 4,7 m/s (1 Bft) S-SO67.5 155 0,00 min 28,2 klux 4,4 C 1,8 C
08.05.2004 13:25 8,3 C 8,5 C 78 % 998 hPa 0,0 l/m 4,1 m/s (1 Bft) SW67.5 225 0,00 min 20,7 klux 4,7 C 3,2 C
08.05.2004 13:30 8,2 C 8,4 C 78 % 998 hPa 0,0 l/m 2,1 m/s (1 Bft) SO22.5 135 0,00 min 8,40 klux 4,6 C 7,2 C
08.05.2004 13:35 8,0 C 8,3 C 80 % 998 hPa 0,0 l/m 2,9 m/s (1 Bft) S-SO67.5 160 0,00 min 11,7 klux 4,8 C 5,2 C
08.05.2004 13:40 7,8 C 8,2 C 80 % 998 hPa 0,0 l/m 6,4 m/s (2 Bft) S67.5 175 0,00 min 14,7 klux 4,6 C -0,6 C
08.05.2004 13:45 7,9 C 8,0 C 80 % 998 hPa 0,0 l/m 8,3 m/s (2 Bft) SO67.5 140 0,00 min 15,8 klux 4,7 C -2,3 C
08.05.2004 13:50 7,9 C 8,0 C 79 % 998 hPa 0,0 l/m 4,3 m/s (1 Bft) S-SW67.5 205 0,00 min 17,3 klux 4,5 C 2,4 C
08.05.2004 13:55 7,9 C 8,0 C 79 % 998 hPa 0,0 l/m 3,9 m/s (1 Bft) S67.5 175 0,00 min 19,2 klux 4,5 C 3,0 C
08.05.2004 14:00 8,0 C 8,0 C 78 % 998 hPa 0,0 l/m 2,7 m/s (1 Bft) SW45 225 0,00 min 15,7 klux 4,4 C 5,5 C
08.05.2004 14:05 8,1 C 8,0 C 77 % 998 hPa 0,0 l/m 3,9 m/s (1 Bft) SW22.5 220 0,00 min 16,8 klux 4,3 C 3,3 C
08.05.2004 14:10 8,1 C 8,0 C 77 % 998 hPa 0,0 l/m 2,6 m/s (1 Bft) W-SW45 240 0,00 min 13,5 klux 4,3 C 5,8 C
08.05.2004 14:15 7,7 C 8,0 C 77 % 998 hPa 0,0 l/m 4,9 m/s (1 Bft) SW67.5 225 0,00 min 10,3 klux 3,9 C 1,2 C
08.05.2004 14:20 7,7 C 8,0 C 79 % 998 hPa 0,0 l/m 6,5 m/s (2 Bft) SO67.5 135 0,00 min 11,9 klux 4,3 C -0,8 C
08.05.2004 14:25 7,6 C 7,9 C 78 % 998 hPa 0,0 l/m 6,6 m/s (2 Bft) SO45 140 0,00 min 12,7 klux 4,0 C -1,0 C
08.05.2004 14:30 7,8 C 7,9 C 78 % 998 hPa 0,0 l/m 5,1 m/s (1 Bft) S-SO67.5 160 0,00 min 14,8 klux 4,2 C 1,0 C
08.05.2004 14:35 7,8 C 7,9 C 78 % 998 hPa 0,0 l/m 5,1 m/s (1 Bft) S-SO67.5 160 0,00 min 18,2 klux 4,2 C 1,0 C
08.05.2004 14:40 7,8 C 7,9 C 78 % 998 hPa 0,0 l/m 3,6 m/s (1 Bft) S-SO45 150 0,00 min 18,5 klux 4,2 C 3,6 C
08.05.2004 14:45 7,8 C 8,0 C 77 % 998 hPa 0,0 l/m 4,0 m/s (1 Bft) SO45 145 0,00 min 12,8 klux 4,0 C 2,7 C
08.05.2004 14:50 7,8 C 7,9 C 77 % 999 hPa 0,0 l/m 5,2 m/s (1 Bft) SO67.5 135 0,00 min 12,3 klux 4,0 C 1,0 C
08.05.2004 14:55 7,7 C 7,9 C 77 % 999 hPa 0,0 l/m 6,0 m/s (2 Bft) S-SO67.5 150 0,00 min 17,4 klux 3,9 C -0,2 C
08.05.2004 15:00 7,9 C 7,9 C 77 % 998 hPa 0,0 l/m 5,3 m/s (1 Bft) SO45 145 0,00 min 16,6 klux 4,1 C 0,9 C
08.05.2004 15:05 8,1 C 7,9 C 75 % 998 hPa 0,0 l/m 3,4 m/s (1 Bft) SO45 145 0,00 min 17,0 klux 3,9 C 4,2 C
08.05.2004 15:10 7,9 C 7,9 C 76 % 999 hPa 0,0 l/m 5,4 m/s (1 Bft) SO67.5 145 0,00 min 16,3 klux 3,9 C 0,8 C
08.05.2004 15:15 7,8 C 8,0 C 75 % 998 hPa 0,0 l/m 5,3 m/s (1 Bft) SO45 140 0,00 min 16,7 klux 3,7 C 0,8 C
08.05.2004 15:20 7,9 C 8,1 C 75 % 998 hPa 0,0 l/m 4,8 m/s (1 Bft) S-SO67.5 160 0,00 min 17,2 klux 3,7 C 1,6 C
08.05.2004 15:25 8,2 C 8,1 C 74 % 999 hPa 0,0 l/m 2,8 m/s (1 Bft) S67.5 190 0,00 min 10,9 klux 3,8 C 5,7 C
08.05.2004 15:30 7,9 C 8,1 C 75 % 999 hPa 0,0 l/m 1,1 m/s (1 Bft) S45 185 0,00 min 11,7 klux 3,7 C 7,9 C
08.05.2004 15:35 7,8 C 8,2 C 75 % 999 hPa 0,0 l/m 3,9 m/s (1 Bft) O-SO45 120 0,00 min 9,8 klux 3,7 C 2,9 C
08.05.2004 15:40 8,1 C 8,2 C 75 % 999 hPa 0,0 l/m 3,1 m/s (1 Bft) SO45 125 0,00 min 9,6 klux 3,9 C 4,9 C
08.05.2004 15:45 8,2 C 8,3 C 74 % 999 hPa 0,0 l/m 3,6 m/s (1 Bft) SO45 135 0,00 min 10,5 klux 3,8 C 4,0 C
08.05.2004 15:50 8,0 C 8,3 C 74 % 999 hPa 0,0 l/m 5,4 m/s (1 Bft) SO45 140 0,00 min 12,4 klux 3,7 C 0,8 C
08.05.2004 15:55 8,1 C 8,3 C 74 % 999 hPa 0,0 l/m 4,6 m/s (1 Bft) SO45 145 0,00 min 13,2 klux 3,8 C 2,1 C
08.05.2004 16:00 8,0 C 8,3 C 74 % 998 hPa 0,0 l/m 5,1 m/s (1 Bft) SO45 135 0,00 min 14,8 klux 3,7 C 1,3 C
08.05.2004 16:05 8,1 C 8,2 C 75 % 998 hPa 0,0 l/m 1,6 m/s (1 Bft) S22.5 170 0,00 min 13,5 klux 3,9 C 8,1 C
08.05.2004 16:10 8,2 C 8,3 C 75 % 998 hPa 0,0 l/m 3,5 m/s (1 Bft) S67.5 185 0,00 min 13,3 klux 4,0 C 4,1 C
08.05.2004 16:15 8,2 C 8,3 C 74 % 998 hPa 0,0 l/m 3,9 m/s (1 Bft) SO67.5 135 0,00 min 12,8 klux 3,8 C 3,5 C
08.05.2004 16:20 8,1 C 8,3 C 75 % 999 hPa 0,0 l/m 4,9 m/s (1 Bft) S-SO67.5 160 0,00 min 12,9 klux 3,9 C 1,7 C
08.05.2004 16:25 8,1 C 8,3 C 74 % 999 hPa 0,0 l/m 5,5 m/s (1 Bft) SO45 140 0,00 min 14,4 klux 3,8 C 0,9 C
08.05.2004 16:30 7,9 C 8,4 C 75 % 999 hPa 0,0 l/m 6,5 m/s (2 Bft) SO45 130 0,00 min 12,6 klux 3,7 C -0,5 C
08.05.2004 16:35 8,2 C 8,4 C 74 % 999 hPa 0,0 l/m 3,3 m/s (1 Bft) S-SO67.5 150 0,00 min 12,1 klux 3,8 C 4,4 C
08.05.2004 16:40 8,2 C 8,4 C 74 % 999 hPa 0,0 l/m 4,2 m/s (1 Bft) S-SO45 165 0,00 min 11,4 klux 3,8 C 3,0 C
08.05.2004 16:45 8,1 C 8,4 C 74 % 999 hPa 0,0 l/m 4,8 m/s (1 Bft) SO45 130 0,00 min 10,8 klux 3,8 C 1,8 C
08.05.2004 16:50 8,1 C 8,3 C 74 % 999 hPa 0,0 l/m 2,9 m/s (1 Bft) SO45 135 0,00 min 10,4 klux 3,8 C 5,2 C
08.05.2004 16:55 8,0 C 8,3 C 74 % 999 hPa 0,0 l/m 4,5 m/s (1 Bft) SO22.5 135 0,00 min 9,6 klux 3,7 C 2,1 C
08.05.2004 17:00 8,1 C 8,2 C 75 % 999 hPa 0,0 l/m 3,1 m/s (1 Bft) SO22.5 135 0,00 min 8,23 klux 3,9 C 4,7 C
08.05.2004 17:05 8,0 C 8,2 C 75 % 999 hPa 0,0 l/m 4,4 m/s (1 Bft) SO45 135 0,00 min 9,9 klux 3,8 C 2,4 C
08.05.2004 17:10 8,0 C 8,2 C 75 % 999 hPa 0,0 l/m 3,9 m/s (1 Bft) S-SO45 165 0,00 min 9,1 klux 3,8 C 3,1 C
08.05.2004 17:15 7,8 C 8,2 C 76 % 999 hPa 0,0 l/m 1,7 m/s (1 Bft) S-SO67.5 150 0,00 min 8,89 klux 3,8 C 7,8 C
08.05.2004 17:20 7,9 C 8,2 C 76 % 999 hPa 0,0 l/m 5,0 m/s (1 Bft) S67.5 185 0,00 min 7,43 klux 3,9 C 1,3 C
08.05.2004 17:25 8,0 C 8,1 C 75 % 999 hPa 0,0 l/m 2,9 m/s (1 Bft) SO45 145 0,00 min 7,72 klux 3,8 C 5,0 C
08.05.2004 17:30 8,0 C 8,1 C 75 % 999 hPa 0,0 l/m 2,2 m/s (1 Bft) SO22.5 135 0,00 min 7,31 klux 3,8 C 6,9 C
08.05.2004 17:35 7,6 C 8,1 C 76 % 999 hPa 0,0 l/m 4,9 m/s (1 Bft) SO67.5 135 0,00 min 7,13 klux 3,6 C 1,0 C
08.05.2004 17:40 7,8 C 8,1 C 76 % 999 hPa 0,0 l/m 5,3 m/s (1 Bft) SO45 145 0,00 min 5,87 klux 3,8 C 0,8 C
08.05.2004 17:45 7,8 C 8,1 C 76 % 999 hPa 0,0 l/m 4,7 m/s (1 Bft) SO22.5 135 0,00 min 5,11 klux 3,8 C 1,6 C
08.05.2004 17:50 7,8 C 8,1 C 75 % 999 hPa 0,0 l/m 6,5 m/s (2 Bft) S-SO67.5 150 0,00 min 5,52 klux 3,7 C -0,7 C
08.05.2004 17:55 7,8 C 8,0 C 75 % 999 hPa 0,0 l/m 3,2 m/s (1 Bft) SO22.5 140 0,00 min 6,16 klux 3,7 C 4,3 C
08.05.2004 18:00 7,7 C 8,0 C 75 % 999 hPa 0,0 l/m 5,7 m/s (1 Bft) SO67.5 140 0,00 min 6,25 klux 3,6 C 0,1 C
08.05.2004 18:05 7,8 C 8,0 C 75 % 999 hPa 0,0 l/m 2,1 m/s (1 Bft) S-SO45 155 0,00 min 5,26 klux 3,7 C 6,8 C
08.05.2004 18:10 7,8 C 8,1 C 75 % 999 hPa 0,0 l/m 2,5 m/s (1 Bft) S67.5 185 0,00 min 4,32 klux 3,7 C 5,8 C
08.05.2004 18:15 7,8 C 8,0 C 76 % 999 hPa 0,0 l/m 2,1 m/s (1 Bft) SO45 140 0,00 min 4,01 klux 3,8 C 6,9 C
08.05.2004 18:20 7,8 C 8,0 C 76 % 999 hPa 0,0 l/m 3,0 m/s (1 Bft) SO22.5 140 0,00 min 3,77 klux 3,8 C 4,7 C
08.05.2004 18:25 7,8 C 8,1 C 76 % 999 hPa 0,0 l/m 2,3 m/s (1 Bft) S-SO67.5 155 0,00 min 5,43 klux 3,8 C 6,3 C
08.05.2004 18:30 7,8 C 8,1 C 76 % 999 hPa 0,0 l/m 5,6 m/s (1 Bft) SO67.5 140 0,00 min 4,74 klux 3,8 C 0,4 C
08.05.2004 18:35 7,8 C 8,1 C 74 % 999 hPa 0,0 l/m 6,0 m/s (2 Bft) SO45 135 0,00 min 5,54 klux 3,5 C -0,1 C
08.05.2004 18:40 7,8 C 8,1 C 74 % 999 hPa 0,0 l/m 5,3 m/s (1 Bft) SO67.5 140 0,00 min 4,59 klux 3,5 C 0,8 C
08.05.2004 18:45 7,8 C 8,1 C 76 % 999 hPa 0,0 l/m 2,7 m/s (1 Bft) S-SO45 150 0,00 min 3,70 klux 3,8 C 5,4 C
08.05.2004 18:50 7,8 C 8,1 C 76 % 999 hPa 0,0 l/m 0,3 m/s (0 Bft) S-SO67.5 165 0,00 min 3,17 klux 3,8 C 7,8 C
08.05.2004 18:55 7,8 C 8,1 C 76 % 999 hPa 0,0 l/m 1,3 m/s (1 Bft) S-SO67.5 150 0,00 min 1,81 klux 3,8 C 7,8 C
08.05.2004 19:00 7,8 C 8,1 C 77 % 999 hPa 0,0 l/m 3,9 m/s (1 Bft) SO67.5 140 0,00 min 1,53 klux 4,0 C 2,9 C
08.05.2004 19:05 7,6 C 8,0 C 77 % 1000 hPa 0,0 l/m 5,1 m/s (1 Bft) S-SO45 160 0,00 min 1,85 klux 3,8 C 0,8 C
08.05.2004 19:10 7,6 C 8,0 C 75 % 1000 hPa 0,0 l/m 6,7 m/s (2 Bft) SO45 135 0,00 min 1,90 klux 3,5 C -1,2 C
08.05.2004 19:15 7,6 C 8,0 C 76 % 1000 hPa 0,0 l/m 2,1 m/s (1 Bft) SO22.5 140 0,00 min 1,86 klux 3,6 C 6,8 C
08.05.2004 19:20 7,6 C 8,0 C 76 % 1000 hPa 0,0 l/m 3,5 m/s (1 Bft) SO45 130 0,00 min 2,19 klux 3,6 C 3,4 C
08.05.2004 19:25 7,6 C 7,9 C 76 % 1000 hPa 0,0 l/m 2,7 m/s (1 Bft) SO22.5 145 0,00 min 2,11 klux 3,6 C 5,1 C
08.05.2004 19:30 7,5 C 7,9 C 76 % 1000 hPa 0,0 l/m 2,0 m/s (1 Bft) S-SO22.5 150 0,00 min 1,86 klux 3,5 C 6,9 C
08.05.2004 19:35 7,5 C 7,9 C 76 % 1000 hPa 0,0 l/m 1,7 m/s (1 Bft) SO22.5 140 0,00 min 1,92 klux 3,5 C 7,5 C
08.05.2004 19:40 7,5 C 7,9 C 76 % 1000 hPa 0,0 l/m 2,7 m/s (1 Bft) SO22.5 140 0,00 min 1,61 klux 3,5 C 5,0 C
08.05.2004 19:45 7,2 C 7,9 C 76 % 1000 hPa 0,0 l/m 2,5 m/s (1 Bft) S-SO45 155 0,00 min 1,51 klux 3,3 C 5,2 C
08.05.2004 19:50 7,5 C 7,8 C 76 % 1000 hPa 0,0 l/m 2,6 m/s (1 Bft) S67.5 170 0,00 min 1,50 klux 3,5 C 5,4 C
08.05.2004 19:55 7,5 C 7,8 C 76 % 1000 hPa 0,0 l/m 0,1 m/s (0 Bft) SO 135 0,00 min 1,38 klux 3,5 C 7,5 C
08.05.2004 20:00 7,5 C 7,8 C 77 % 1000 hPa 0,0 l/m 0,3 m/s (0 Bft) S-SO45 165 0,00 min 1,26 klux 3,7 C 7,5 C
08.05.2004 20:05 7,5 C 7,8 C 76 % 1000 hPa 0,0 l/m 2,3 m/s (1 Bft) S-SO45 165 0,00 min 1,10 klux 3,5 C 6,1 C
08.05.2004 20:10 7,5 C 7,8 C 77 % 1000 hPa 0,0 l/m 1,6 m/s (1 Bft) S45 190 0,00 min 829 lux 3,7 C 7,5 C
08.05.2004 20:15 7,5 C 7,8 C 77 % 1000 hPa 0,0 l/m 0,9 m/s (0 Bft) SO22.5 135 0,00 min 844 lux 3,7 C 7,5 C
08.05.2004 20:20 7,4 C 7,8 C 77 % 1000 hPa 0,0 l/m 1,4 m/s (1 Bft) SO22.5 135 0,00 min 594 lux 3,6 C 7,4 C
08.05.2004 20:25 7,4 C 7,8 C 77 % 1000 hPa 0,0 l/m 0,1 m/s (0 Bft) S45 180 0,00 min 679 lux 3,6 C 7,4 C
08.05.2004 20:30 7,4 C 7,8 C 78 % 1000 hPa 0,0 l/m 1,1 m/s (1 Bft) O-SO45 115 0,00 min 598 lux 3,8 C 7,4 C
08.05.2004 20:35 7,4 C 7,8 C 77 % 1000 hPa 0,0 l/m 0,1 m/s (0 Bft) SO45 135 0,00 min 431 lux 3,6 C 7,4 C
08.05.2004 20:40 7,4 C 7,8 C 77 % 1000 hPa 0,0 l/m 2,8 m/s (1 Bft) SO22.5 130 0,00 min 347 lux 3,6 C 4,8 C
08.05.2004 20:45 7,1 C 7,8 C 77 % 1000 hPa 0,0 l/m 0,1 m/s (0 Bft) S-SO67.5 160 0,00 min 303 lux 3,3 C 7,1 C
08.05.2004 20:50 7,4 C 7,8 C 78 % 1000 hPa 0,0 l/m 0,2 m/s (0 Bft) S-SW45 210 0,00 min 217 lux 3,8 C 7,4 C
08.05.2004 20:55 7,3 C 7,8 C 78 % 1000 hPa 0,0 l/m 2,3 m/s (1 Bft) S-SO67.5 165 0,00 min 180 lux 3,7 C 5,8 C
08.05.2004 21:00 7,0 C 7,8 C 77 % 1000 hPa 0,0 l/m 2,2 m/s (1 Bft) SO22.5 125 0,00 min 129 lux 3,2 C 5,7 C
08.05.2004 21:05 7,3 C 7,8 C 78 % 1000 hPa 0,0 l/m 1,0 m/s (0 Bft) SO22.5 125 0,00 min 72 lux 3,7 C 7,3 C
08.05.2004 21:10 7,3 C 7,8 C 78 % 1000 hPa 0,0 l/m 2,4 m/s (1 Bft) SO22.5 130 0,00 min 50 lux 3,7 C 5,5 C
08.05.2004 21:15 7,3 C 7,8 C 78 % 1000 hPa 0,0 l/m 0,9 m/s (0 Bft) SO22.5 125 0,00 min 37 lux 3,7 C 7,3 C
08.05.2004 21:20 7,3 C 7,7 C 78 % 1000 hPa 0,0 l/m 1,3 m/s (1 Bft) SO22.5 130 0,00 min 23 lux 3,7 C 7,3 C
08.05.2004 21:25 7,3 C 7,7 C 78 % 1000 hPa 0,0 l/m 1,2 m/s (1 Bft) SO 135 0,00 min 12 lux 3,7 C 7,3 C
08.05.2004 21:30 7,2 C 7,7 C 79 % 1000 hPa 0,0 l/m 1,6 m/s (1 Bft) SO45 125 0,00 min 9 lux 3,8 C 7,2 C
08.05.2004 21:35 7,1 C 7,7 C 81 % 1000 hPa 0,0 l/m 3,1 m/s (1 Bft) O-SO45 110 0,00 min 5 lux 4,1 C 3,8 C
08.05.2004 21:40 7,1 C 7,7 C 82 % 1000 hPa 0,0 l/m 3,2 m/s (1 Bft) O-SO22.5 110 0,00 min 2 lux 4,2 C 3,5 C
08.05.2004 21:45 7,1 C 7,6 C 83 % 1000 hPa 0,0 l/m 3,0 m/s (1 Bft) O-SO22.5 110 0,00 min 2 lux 4,4 C 3,9 C
08.05.2004 21:50 7,1 C 7,6 C 84 % 1000 hPa 0,0 l/m 3,3 m/s (1 Bft) O-SO22.5 110 0,00 min 0 lux 4,6 C 3,3 C
08.05.2004 21:55 7,1 C 7,6 C 84 % 1000 hPa 0,0 l/m 3,8 m/s (1 Bft) O-SO45 115 0,00 min 0 lux 4,6 C 2,2 C
08.05.2004 22:00 7,0 C 7,6 C 84 % 1000 hPa 0,0 l/m 3,6 m/s (1 Bft) O22.5 100 0,00 min 0 lux 4,5 C 2,5 C
08.05.2004 22:05 6,8 C 7,5 C 86 % 1000 hPa 0,0 l/m 3,8 m/s (1 Bft) O-SO22.5 105 0,00 min 0 lux 4,6 C 2,0 C
08.05.2004 22:10 7,0 C 7,5 C 85 % 1000 hPa 0,0 l/m 2,8 m/s (1 Bft) O-SO22.5 115 0,00 min 0 lux 4,7 C 4,2 C
08.05.2004 22:15 7,0 C 7,5 C 85 % 1000 hPa 0,0 l/m 4,0 m/s (1 Bft) O-SO22.5 115 0,00 min 0 lux 4,7 C 1,8 C
08.05.2004 22:20 6,9 C 7,5 C 87 % 1000 hPa 0,0 l/m 3,1 m/s (1 Bft) O-SO22.5 105 0,00 min 0 lux 4,9 C 3,4 C
08.05.2004 22:25 6,9 C 7,5 C 87 % 1000 hPa 0,0 l/m 3,4 m/s (1 Bft) O-SO22.5 115 0,00 min 0 lux 4,9 C 2,8 C
08.05.2004 22:30 6,9 C 7,4 C 87 % 1000 hPa 0,0 l/m 3,9 m/s (1 Bft) O-SO22.5 105 0,00 min 0 lux 4,9 C 1,9 C
08.05.2004 22:35 6,9 C 7,4 C 87 % 1000 hPa 0,0 l/m 2,4 m/s (1 Bft) O-SO22.5 110 0,00 min 0 lux 4,9 C 5,1 C
08.05.2004 22:40 6,9 C 7,4 C 87 % 1000 hPa 0,0 l/m 2,7 m/s (1 Bft) O-SO45 105 0,00 min 0 lux 4,9 C 4,4 C
08.05.2004 22:45 7,0 C 7,4 C 86 % 1000 hPa 0,0 l/m 4,5 m/s (1 Bft) O-SO22.5 110 0,00 min 0 lux 4,8 C 0,9 C
08.05.2004 22:50 7,0 C 7,4 C 86 % 1000 hPa 0,0 l/m 3,4 m/s (1 Bft) O-SO22.5 115 0,00 min 0 lux 4,8 C 2,8 C
08.05.2004 22:55 6,7 C 7,4 C 87 % 1000 hPa 0,0 l/m 2,3 m/s (1 Bft) O-SO22.5 110 0,00 min 0 lux 4,7 C 5,3 C
08.05.2004 23:00 7,0 C 7,4 C 86 % 1000 hPa 0,0 l/m 2,4 m/s (1 Bft) O-SO45 105 0,00 min 0 lux 4,8 C 5,2 C
08.05.2004 23:05 7,0 C 7,4 C 86 % 1000 hPa 0,0 l/m 0,1 m/s (0 Bft) O-SO 110 0,00 min 0 lux 4,8 C 7,0 C
08.05.2004 23:10 7,0 C 7,4 C 87 % 1000 hPa 0,0 l/m 2,1 m/s (1 Bft) O-SO45 115 0,00 min 0 lux 5,0 C 6,2 C
08.05.2004 23:15 7,0 C 7,4 C 87 % 1000 hPa 0,0 l/m 2,3 m/s (1 Bft) O-SO22.5 115 0,00 min 0 lux 5,0 C 5,4 C
08.05.2004 23:20 7,0 C 7,4 C 87 % 1000 hPa 0,0 l/m 1,4 m/s (1 Bft) O-SO45 115 0,00 min 0 lux 5,0 C 7,0 C
08.05.2004 23:25 6,9 C 7,4 C 88 % 1000 hPa 0,0 l/m 3,3 m/s (1 Bft) O-SO22.5 115 0,00 min 0 lux 5,1 C 3,1 C
08.05.2004 23:30 6,9 C 7,4 C 88 % 1000 hPa 0,0 l/m 2,3 m/s (1 Bft) O-SO22.5 115 0,00 min 0 lux 5,1 C 5,5 C
08.05.2004 23:35 6,9 C 7,4 C 88 % 1000 hPa 0,0 l/m 2,5 m/s (1 Bft) O-SO22.5 110 0,00 min 0 lux 5,1 C 4,9 C
08.05.2004 23:40 6,9 C 7,4 C 88 % 1000 hPa 0,0 l/m 1,3 m/s (1 Bft) O-SO22.5 105 0,00 min 0 lux 5,1 C 6,9 C
08.05.2004 23:45 6,9 C 7,4 C 88 % 1000 hPa 0,0 l/m 3,0 m/s (1 Bft) O45 100 0,00 min 0 lux 5,1 C 3,7 C
08.05.2004 23:50 6,9 C 7,4 C 88 % 1000 hPa 0,0 l/m 1,2 m/s (1 Bft) O-SO22.5 105 0,00 min 0 lux 5,1 C 6,9 C
08.05.2004 23:55 6,9 C 7,4 C 88 % 1000 hPa 0,0 l/m 2,1 m/s (1 Bft) O-SO22.5 120 0,00 min 0 lux 5,1 C 6,1 C
_ Min-Zeit 01:35 05:15 15:25 02:55 - 01:10 - - - - 21:00 08:55
Minimum _ 5,1 C 5,5 C 74 % 996 hPa - 0,0 m/s (0 Bft) - - - - 3,2 C -5,1 C
_ Max-Zeit 11:50 13:20 02:50 19:05 00:45 10:15 - - 00:00 11:50 11:50 12:40
Maximum _ 8,6 C 8,5 C 93 % 1000 hPa 0,4 l/m 8,4 m/s
SO (5 Bft)
- - 0,00 min 39,8 klux 5,9 C 8,1 C
Durchschnitt _ 6,7 C 7,0 C 84 % 998 hPa #4,7 l/m 3,0 m/s (2 Bft) SO - #0 min. 7,36 klux 4,2 C 3,4 C